Weather Roundup
Issued by NWS Chicago, IL

Home | Current Version | Previous Version | Text Only | Print | Product List | Glossary On
Versions: 1 2 3 4 5 6 7 8 9 10 11 12 13 14 15 16 17 18 19 20 21 22 23 24 25 26 27 28 29 30 31 32 33 34 35 36 37 38 39 40 41 42 43 44 45 46 47 48 49 50
000
NZUS59 KLOT 251408
HRRLOT

CHICAGO AREA WEATHER ROUNDUP
NATIONAL WEATHER SERVICE CHICAGO/ROMEOVILLE IL
900 AM CDT SUN JUN 25 2017

NOTE: "FAIR" INDICATES FEW OR NO CLOUDS BELOW 12,000 FEET WITH NO
SIGNIFICANT WEATHER AND/OR OBSTRUCTIONS TO VISIBILITY.

* THESE STATIONS ARE NOT UNDER NWS QUALITY CONTROL. THEY ALSO MAY NOT
  REPORT WEATHER SUCH AS PRECIPITATION OR FOG.

ILZ005-006-012>014-019>023-251500-
NORTHEAST ILLINOIS

CITY           SKY/WX    TMP DP  RH WIND       PRES   REMARKS
OHARE          MOSUNNY   63  49  60 W12       30.10S
MIDWAY         MOSUNNY   65  48  54 W15       30.11R
AURORA         SUNNY     64  50  60 W15       30.13S
LANSING*       SUNNY     64  47  53 W14G21    30.12S
JOLIET*        SUNNY     65  49  56 W12G17    30.13S
WAUKEGAN       SUNNY     62  51  67 VRB5      30.08R
DUPAGE AIRPORT SUNNY     62  51  67 W15       30.11R
WHEELING       SUNNY     63  50  62 W8        30.11S
MORRIS*        SUNNY     65  48  53 NW17G24   30.13R
LEWIS AIRPORT* SUNNY     64  46  51 W18       30.13R
NORTHERLY ISL    N/A     63  45  51 NW8         N/A
$$

WIZ051-052-058>065-066-070>072-251500-
SOUTHEAST WISCONSIN

CITY           SKY/WX    TMP DP  RH WIND       PRES   REMARKS
MILWAUKEE      MOSUNNY   62  50  64 W10G21    30.06R
KENOSHA*       SUNNY     61  50  67 W13G20    30.08R
RACINE*        SUNNY     62  50  64 W10       30.08R
WAUKESHA       SUNNY     55  48  76 W13G18    30.08R
WEST BEND      SUNNY     59  50  72 W15G21    30.04S
$$

INZ001>003-010>013-019-020-251500-
NORTHWEST INDIANA

CITY           SKY/WX    TMP DP  RH WIND       PRES   REMARKS
GARY*          MOSUNNY   66  45  45 W12G24    30.12R
MICHIGAN CITY* NOT AVBL
RENSSELAER*    NOT AVBL
VALPARAISO     SUNNY     66  48  52 W15       30.12R
$$

LMZ740>746-251500-
SOUTHERN LAKE MICHIGAN

STATION/POSITION TIME  SKY/WX   TEMP WIND        PRES    VSBY
                                AIR  DIR/SP/G
                 (UTC)          (F)  (DEG/KT/KT) (MB)    (MI)
HARRISON CRIB    1340            61  280/ 15/ 16   N/A
BURNHAM HARBOR   1400            64                N/A
CALUMET HARBOR   1348            64  250/  6/ 12 1019.0R
BURNS HARBOR     1340            62  260/ 14/ 17 1020.0R
MICHIGAN CITY    1340            60  250/ 20/ 21   N/A
$$

ABBREVIATIONS USED IN REMARKS
   TC - TEMPERATURE IN CELSIUS
  WCI - WIND CHILL INDEX
   HX - HEAT INDEX
  VSB - VISIBILITY
$$




USA.gov is the U.S. government's official web portal to all federal, state and local government web resources and services.